QPF
0.01 0.01 0.02 0.02 0.02 0.02 0.01 0.03 0.07 0.04 0.03 0.03 0.04 0.05 0.02 0.00 0.00 0.00 0.00 0.00 0.00 0.01 0.01 0.01 0.01 0.01 0.01 0.01 0.01 0.01 0.02 0.01 0.01 0.02 0.02 0.03 0.03 0.03 0.03 0.04 0.06 0.05 0.08
0.01 0.02 0.03 0.03 0.02 0.02 0.02 0.03 0.05 0.03 0.02 0.02 0.04 0.04 0.02 0.00 0.00 0.00 0.00 0.00 0.01 0.02 0.02 0.02 0.01 0.01 0.01 0.01 0.01 0.01 0.02 0.01 0.01 0.02 0.02 0.02 0.04 0.05 0.06 0.06 0.06 0.05 0.07
0.00 0.01 0.03 0.04 0.01 0.02 0.02 0.03 0.03 0.01 0.02 0.02 0.03 0.04 0.03 0.01 0.00 0.00 0.01 0.01 0.01 0.02 0.02 0.02 0.02 0.02 0.02 0.02 0.01 0.02 0.03 0.03 0.03 0.03 0.03 0.02 0.01 0.04 0.07 0.08 0.07 0.07 0.06
0.00 0.01 0.03 0.04 0.03 0.03 0.03 0.02 0.01 0.01 0.02 0.02 0.02 0.03 0.04 0.02 0.01 0.01 0.01 0.01 0.01 0.01 0.02 0.02 0.02 0.03 0.03 0.03 0.03 0.03 0.03 0.04 0.04 0.04 0.03 0.02 0.01 0.04 0.06 0.08 0.08 0.07 0.07
0.00 0.00 0.02 0.03 0.04 0.05 0.04 0.03 0.02 0.02 0.02 0.02 0.02 0.03 0.06 0.04 0.01 0.01 0.01 0.01 0.02 0.02 0.02 0.02 0.02 0.03 0.04 0.04 0.02 0.02 0.02 0.03 0.04 0.03 0.02 0.02 0.02 0.04 0.06 0.07 0.07 0.07 0.08
0.00 0.00 0.00 0.02 0.02 0.05 0.07 0.05 0.03 0.03 0.02 0.02 0.02 0.02 0.05 0.05 0.02 0.01 0.01 0.01 0.01 0.02 0.02 0.02 0.02 0.02 0.03 0.04 0.02 0.02 0.02 0.02 0.02 0.02 0.02 0.02 0.02 0.03 0.06 0.07 0.08 0.08 0.08
0.02 0.01 0.01 0.02 0.02 0.04 0.05 0.05 0.05 0.05 0.04 0.03 0.03 0.02 0.03 0.03 0.02 0.02 0.01 0.01 0.01 0.01 0.02 0.02 0.03 0.03 0.03 0.03 0.03 0.02 0.02 0.03 0.02 0.01 0.01 0.01 0.01 0.03 0.05 0.07 0.09 0.09 0.08
0.02 0.02 0.03 0.03 0.03 0.04 0.05 0.05 0.05 0.04 0.04 0.04 0.02 0.01 0.01 0.02 0.02 0.03 0.03 0.02 0.01 0.02 0.02 0.02 0.03 0.04 0.03 0.02 0.03 0.03 0.02 0.03 0.02 0.01 0.01 0.00 0.01 0.03 0.06 0.08 0.08 0.09 0.10
0.01 0.01 0.01 0.03 0.05 0.07 0.07 0.06 0.06 0.04 0.03 0.03 0.03 0.02 0.02 0.02 0.03 0.03 0.03 0.03 0.02 0.02 0.01 0.02 0.03 0.03 0.03 0.03 0.03 0.03 0.03 0.02 0.02 0.02 0.02 0.01 0.01 0.03 0.07 0.09 0.09 0.09 0.10
0.01 0.01 0.01 0.01 0.03 0.05 0.06 0.07 0.06 0.04 0.03 0.02 0.02 0.03 0.03 0.02 0.03 0.04 0.05 0.04 0.03 0.02 0.02 0.02 0.03 0.04 0.04 0.04 0.04 0.04 0.03 0.03 0.03 0.03 0.02 0.02 0.02 0.05 0.08 0.08 0.09 0.09 0.09
0.01 0.03 0.04 0.02 0.02 0.03 0.04 0.05 0.05 0.05 0.05 0.05 0.04 0.04 0.04 0.04 0.05 0.06 0.06 0.06 0.04 0.03 0.03 0.03 0.04 0.05 0.05 0.04 0.05 0.05 0.04 0.03 0.04 0.03 0.03 0.01 0.02 0.05 0.09 0.08 0.08 0.08 0.08
0.01 0.02 0.04 0.05 0.02 0.03 0.04 0.05 0.05 0.05 0.06 0.06 0.05 0.03 0.03 0.04 0.05 0.06 0.07 0.07 0.07 0.05 0.04 0.05 0.04 0.04 0.04 0.03 0.04 0.05 0.03 0.03 0.02 0.02 0.02 0.02 0.03 0.04 0.06 0.08 0.10 0.11 0.10
0.01 0.01 0.01 0.03 0.06 0.05 0.04 0.05 0.05 0.07 0.06 0.07 0.04 0.03 0.03 0.03 0.03 0.03 0.03 0.05 0.05 0.05 0.04 0.05 0.05 0.04 0.04 0.04 0.03 0.03 0.02 0.01 0.01 0.01 0.02 0.03 0.04 0.04 0.06 0.07 0.08 0.10 0.12
0.01 0.01 0.02 0.03 0.04 0.07 0.09 0.06 0.04 0.06 0.08 0.08 0.05 0.04 0.02 0.02 0.03 0.02 0.02 0.03 0.03 0.05 0.05 0.06 0.06 0.03 0.03 0.02 0.02 0.02 0.01 0.01 0.01 0.01 0.02 0.04 0.04 0.05 0.06 0.08 0.08 0.09 0.10
0.03 0.02 0.04 0.05 0.04 0.05 0.10 0.10 0.07 0.08 0.10 0.10 0.06 0.04 0.03 0.02 0.02 0.02 0.02 0.03 0.02 0.03 0.03 0.06 0.07 0.05 0.03 0.03 0.03 0.03 0.02 0.02 0.01 0.01 0.02 0.03 0.03 0.05 0.07 0.07 0.08 0.10 0.10
0.03 0.04 0.05 0.07 0.07 0.07 0.07 0.09 0.09 0.08 0.10 0.10 0.07 0.05 0.04 0.03 0.02 0.03 0.02 0.02 0.02 0.02 0.03 0.05 0.05 0.05 0.04 0.02 0.02 0.02 0.02 0.02 0.02 0.02 0.01 0.02 0.03 0.03 0.05 0.06 0.07 0.08 0.09
0.05 0.06 0.07 0.09 0.10 0.09 0.08 0.08 0.09 0.08 0.08 0.09 0.08 0.08 0.06 0.04 0.03 0.03 0.03 0.03 0.03 0.03 0.03 0.04 0.05 0.05 0.05 0.04 0.03 0.02 0.02 0.02 0.01 0.01 0.01 0.02 0.02 0.02 0.03 0.04 0.05 0.05 0.07
0.07 0.08 0.10 0.14 0.16 0.11 0.07 0.06 0.07 0.06 0.06 0.08 0.08 0.08 0.07 0.04 0.04 0.03 0.03 0.04 0.05 0.04 0.04 0.04 0.05 0.06 0.05 0.05 0.03 0.02 0.02 0.02 0.01 0.01 0.01 0.01 0.01 0.01 0.02 0.03 0.04 0.04 0.05
0.07 0.09 0.11 0.12 0.20 0.19 0.10 0.08 0.09 0.08 0.06 0.06 0.06 0.06 0.06 0.06 0.04 0.02 0.03 0.04 0.04 0.04 0.05 0.06 0.07 0.06 0.05 0.05 0.03 0.02 0.02 0.02 0.02 0.03 0.02 0.02 0.02 0.01 0.01 0.01 0.02 0.02 0.03
0.06 0.07 0.12 0.15 0.17 0.20 0.15 0.11 0.10 0.08 0.06 0.06 0.06 0.05 0.05 0.05 0.05 0.04 0.05 0.05 0.06 0.06 0.07 0.08 0.07 0.06 0.05 0.04 0.03 0.02 0.02 0.02 0.02 0.02 0.02 0.02 0.02 0.02 0.01 0.01 0.01 0.01 0.02
0.08 0.09 0.12 0.16 0.14 0.14 0.14 0.13 0.11 0.07 0.06 0.06 0.07 0.06 0.05 0.07 0.08 0.09 0.09 0.08 0.07 0.07 0.08 0.09 0.06 0.05 0.05 0.04 0.03 0.03 0.03 0.02 0.02 0.02 0.02 0.01 0.01 0.02 0.02 0.02 0.02 0.02 0.02
0.08 0.10 0.11 0.15 0.15 0.14 0.15 0.17 0.13 0.09 0.08 0.08 0.09 0.08 0.09 0.10 0.12 0.14 0.13 0.11 0.09 0.09 0.09 0.08 0.06 0.05 0.05 0.05 0.03 0.02 0.01 0.01 0.00 0.01 0.01 0.00 0.01 0.01 0.02 0.03 0.03 0.03 0.03
0.08 0.09 0.10 0.11 0.11 0.15 0.19 0.19 0.17 0.12 0.10 0.09 0.08 0.08 0.10 0.12 0.14 0.16 0.14 0.13 0.12 0.10 0.07 0.06 0.08 0.08 0.06 0.05 0.05 0.04 0.02 0.01 0.00 0.00 0.00 0.01 0.01 0.01 0.01 0.01 0.03 0.04 0.04
0.07 0.08 0.09 0.09 0.09 0.12 0.15 0.15 0.16 0.14 0.11 0.08 0.07 0.06 0.06 0.07 0.11 0.11 0.11 0.12 0.12 0.10 0.06 0.05 0.06 0.08 0.09 0.09 0.07 0.05 0.03 0.02 0.01 0.00 0.00 0.00 0.00 0.01 0.00 0.01 0.02 0.03 0.05
0.07 0.08 0.09 0.08 0.08 0.10 0.11 0.14 0.14 0.12 0.10 0.07 0.06 0.06 0.06 0.06 0.06 0.07 0.07 0.08 0.08 0.08 0.06 0.06 0.07 0.08 0.09 0.08 0.08 0.07 0.05 0.03 0.02 0.01 0.01 0.01 0.01 0.01 0.00 0.00 0.01 0.02 0.04
0.12 0.10 0.08 0.06 0.08 0.10 0.10 0.10 0.11 0.11 0.11 0.09 0.06 0.06 0.06 0.06 0.08 0.07 0.07 0.07 0.07 0.07 0.07 0.08 0.09 0.10 0.09 0.08 0.08 0.07 0.06 0.04 0.03 0.03 0.02 0.01 0.01 0.01 0.00 0.00 0.00 0.01 0.02
MSLP
1010.16 1010.04 1010.14 1010.40 1010.75 1011.09 1011.35 1011.50 1011.54 1011.50 1011.46 1011.50 1011.66 1011.99 1012.45 1013.00 1013.57 1014.10 1014.53 1014.84 1015.04 1015.14 1015.21 1015.26 1015.32 1015.41 1015.52 1015.63 1015.72 1015.78 1015.81 1015.81 1015.80 1015.79 1015.78 1015.80 1015.83 1015.89 1015.96 1016.05 1016.15 1016.28 1016.42
1009.66 1009.67 1009.90 1010.30 1010.78 1011.24 1011.60 1011.82 1011.89 1011.88 1011.84 1011.88 1012.04 1012.35 1012.80 1013.33 1013.87 1014.37 1014.77 1015.05 1015.22 1015.31 1015.36 1015.40 1015.46 1015.54 1015.63 1015.71 1015.77 1015.81 1015.81 1015.80 1015.79 1015.79 1015.80 1015.84 1015.89 1015.94 1016.00 1016.07 1016.14 1016.24 1016.36
1009.06 1009.20 1009.57 1010.11 1010.73 1011.31 1011.77 1012.07 1012.21 1012.24 1012.23 1012.28 1012.45 1012.74 1013.15 1013.64 1014.13 1014.57 1014.91 1015.14 1015.27 1015.34 1015.39 1015.44 1015.51 1015.60 1015.69 1015.76 1015.80 1015.82 1015.81 1015.80 1015.79 1015.81 1015.86 1015.92 1015.98 1016.04 1016.09 1016.12 1016.16 1016.22 1016.31
1008.45 1008.71 1009.21 1009.87 1010.61 1011.29 1011.85 1012.23 1012.44 1012.53 1012.57 1012.65 1012.82 1013.09 1013.47 1013.89 1014.31 1014.67 1014.94 1015.11 1015.22 1015.28 1015.34 1015.41 1015.51 1015.62 1015.73 1015.80 1015.84 1015.84 1015.83 1015.82 1015.83 1015.87 1015.95 1016.04 1016.12 1016.18 1016.20 1016.21 1016.20 1016.22 1016.27
1007.95 1008.31 1008.90 1009.65 1010.46 1011.21 1011.84 1012.28 1012.55 1012.70 1012.80 1012.92 1013.10 1013.38 1013.72 1014.09 1014.43 1014.71 1014.91 1015.03 1015.10 1015.16 1015.24 1015.35 1015.49 1015.64 1015.77 1015.86 1015.90 1015.90 1015.89 1015.88 1015.90 1015.97 1016.06 1016.17 1016.26 1016.31 1016.32 1016.29 1016.25 1016.22 1016.25
1007.65 1008.08 1008.72 1009.51 1010.34 1011.12 1011.77 1012.24 1012.55 1012.75 1012.91 1013.07 1013.30 1013.58 1013.91 1014.24 1014.52 1014.74 1014.87 1014.95 1015.00 1015.06 1015.16 1015.31 1015.49 1015.67 1015.83 1015.94 1015.98 1015.99 1015.97 1015.96 1015.99 1016.06 1016.16 1016.27 1016.36 1016.40 1016.38 1016.32 1016.25 1016.19 1016.19
1007.62 1008.08 1008.73 1009.51 1010.31 1011.06 1011.68 1012.15 1012.47 1012.71 1012.91 1013.13 1013.40 1013.72 1014.05 1014.36 1014.62 1014.78 1014.88 1014.92 1014.95 1015.01 1015.12 1015.30 1015.51 1015.72 1015.90 1016.02 1016.07 1016.06 1016.03 1016.02 1016.03 1016.09 1016.19 1016.29 1016.36 1016.38 1016.34 1016.25 1016.15 1016.08 1016.07
1007.87 1008.33 1008.94 1009.67 1010.40 1011.07 1011.62 1012.05 1012.36 1012.61 1012.85 1013.13 1013.45 1013.81 1014.18 1014.50 1014.74 1014.89 1014.95 1014.96 1014.97 1015.02 1015.14 1015.32 1015.54 1015.77 1015.95 1016.07 1016.11 1016.09 1016.04 1016.00 1015.99 1016.03 1016.09 1016.16 1016.20 1016.19 1016.13 1016.03 1015.92 1015.84 1015.84
1008.32 1008.76 1009.33 1009.97 1010.61 1011.18 1011.64 1012.00 1012.27 1012.52 1012.78 1013.10 1013.48 1013.90 1014.30 1014.65 1014.90 1015.04 1015.08 1015.08 1015.06 1015.09 1015.19 1015.35 1015.56 1015.77 1015.94 1016.04 1016.07 1016.03 1015.96 1015.88 1015.83 1015.83 1015.85 1015.87 1015.88 1015.84 1015.75 1015.64 1015.53 1015.47 1015.49
1008.87 1009.30 1009.82 1010.38 1010.92 1011.39 1011.75 1012.03 1012.26 1012.48 1012.76 1013.11 1013.53 1013.99 1014.43 1014.80 1015.07 1015.21 1015.24 1015.22 1015.18 1015.18 1015.24 1015.37 1015.54 1015.72 1015.86 1015.94 1015.94 1015.87 1015.77 1015.66 1015.57 1015.51 1015.48 1015.46 1015.42 1015.35 1015.25 1015.13 1015.04 1014.99 1015.03
1009.39 1009.83 1010.33 1010.83 1011.29 1011.67 1011.95 1012.16 1012.34 1012.54 1012.81 1013.17 1013.61 1014.09 1014.55 1014.95 1015.22 1015.37 1015.39 1015.35 1015.28 1015.24 1015.26 1015.34 1015.46 1015.60 1015.71 1015.75 1015.73 1015.65 1015.52 1015.38 1015.25 1015.15 1015.06 1014.99 1014.91 1014.81 1014.69 1014.58 1014.49 1014.47 1014.52
1009.82 1010.28 1010.78 1011.26 1011.67 1011.99 1012.22 1012.37 1012.51 1012.69 1012.94 1013.29 1013.73 1014.20 1014.66 1015.05 1015.32 1015.46 1015.48 1015.42 1015.33 1015.26 1015.24 1015.27 1015.35 1015.44 1015.52 1015.54 1015.50 1015.41 1015.27 1015.11 1014.95 1014.81 1014.68 1014.56 1014.44 1014.31 1014.18 1014.07 1013.99 1013.98 1014.04
1010.08 1010.59 1011.11 1011.60 1012.00 1012.30 1012.50 1012.64 1012.76 1012.92 1013.14 1013.47 1013.87 1014.31 1014.74 1015.10 1015.36 1015.49 1015.50 1015.44 1015.34 1015.25 1015.20 1015.20 1015.24 1015.29 1015.34 1015.35 1015.30 1015.21 1015.07 1014.91 1014.74 1014.57 1014.41 1014.26 1014.10 1013.95 1013.81 1013.69 1013.62 1013.60 1013.66
1010.21 1010.76 1011.31 1011.81 1012.23 1012.55 1012.77 1012.92 1013.04 1013.18 1013.39 1013.67 1014.01 1014.40 1014.77 1015.09 1015.31 1015.43 1015.45 1015.40 1015.31 1015.22 1015.16 1015.15 1015.16 1015.20 1015.23 1015.24 1015.20 1015.11 1014.99 1014.83 1014.66 1014.49 1014.31 1014.13 1013.96 1013.79 1013.63 1013.51 1013.43 1013.40 1013.43
1010.22 1010.80 1011.37 1011.90 1012.34 1012.70 1012.96 1013.15 1013.30 1013.45 1013.63 1013.87 1014.15 1014.46 1014.76 1015.02 1015.21 1015.32 1015.35 1015.33 1015.27 1015.21 1015.18 1015.17 1015.18 1015.21 1015.23 1015.24 1015.21 1015.14 1015.04 1014.90 1014.75 1014.57 1014.39 1014.20 1014.02 1013.83 1013.67 1013.54 1013.44 1013.39 1013.38
1010.20 1010.75 1011.31 1011.85 1012.33 1012.73 1013.05 1013.30 1013.50 1013.68 1013.86 1014.05 1014.27 1014.49 1014.72 1014.92 1015.08 1015.19 1015.25 1015.27 1015.27 1015.26 1015.26 1015.28 1015.30 1015.33 1015.36 1015.36 1015.34 1015.29 1015.21 1015.10 1014.96 1014.80 1014.63 1014.44 1014.25 1014.06 1013.89 1013.74 1013.63 1013.55 1013.50
1010.18 1010.67 1011.18 1011.70 1012.19 1012.64 1013.03 1013.36 1013.63 1013.85 1014.04 1014.21 1014.37 1014.53 1014.68 1014.82 1014.95 1015.07 1015.16 1015.25 1015.32 1015.38 1015.44 1015.49 1015.53 1015.57 1015.58 1015.58 1015.57 1015.52 1015.46 1015.37 1015.25 1015.12 1014.95 1014.77 1014.58 1014.39 1014.21 1014.06 1013.93 1013.82 1013.73
1010.19 1010.57 1011.00 1011.47 1011.96 1012.46 1012.92 1013.34 1013.69 1013.98 1014.20 1014.36 1014.48 1014.58 1014.68 1014.77 1014.88 1015.01 1015.15 1015.29 1015.44 1015.58 1015.69 1015.78 1015.85 1015.88 1015.89 1015.88 1015.85 1015.81 1015.75 1015.68 1015.58 1015.46 1015.31 1015.14 1014.95 1014.76 1014.58 1014.41 1014.26 1014.13 1014.00
1010.25 1010.48 1010.80 1011.21 1011.69 1012.21 1012.74 1013.25 1013.70 1014.06 1014.34 1014.52 1014.63 1014.69 1014.74 1014.80 1014.90 1015.04 1015.22 1015.42 1015.64 1015.84 1016.01 1016.14 1016.21 1016.24 1016.24 1016.21 1016.16 1016.11 1016.06 1015.99 1015.91 1015.80 1015.66 1015.49 1015.30 1015.11 1014.91 1014.73 1014.57 1014.41 1014.26
1010.32 1010.41 1010.62 1010.95 1011.41 1011.96 1012.56 1013.16 1013.70 1014.16 1014.49 1014.71 1014.82 1014.87 1014.90 1014.94 1015.02 1015.17 1015.38 1015.64 1015.91 1016.16 1016.38 1016.53 1016.61 1016.63 1016.60 1016.55 1016.49 1016.43 1016.37 1016.31 1016.23 1016.13 1015.99 1015.82 1015.62 1015.40 1015.19 1014.98 1014.79 1014.62 1014.44
1010.41 1010.37 1010.48 1010.76 1011.20 1011.77 1012.42 1013.10 1013.74 1014.28 1014.69 1014.96 1015.10 1015.15 1015.16 1015.19 1015.27 1015.42 1015.65 1015.94 1016.24 1016.53 1016.76 1016.92 1017.01 1017.02 1016.97 1016.90 1016.82 1016.75 1016.69 1016.63 1016.56 1016.45 1016.31 1016.11 1015.89 1015.64 1015.38 1015.14 1014.92 1014.71 1014.52
1010.52 1010.41 1010.45 1010.69 1011.11 1011.70 1012.40 1013.15 1013.86 1014.49 1014.96 1015.28 1015.45 1015.52 1015.53 1015.56 1015.63 1015.78 1016.01 1016.30 1016.61 1016.91 1017.15 1017.31 1017.39 1017.39 1017.34 1017.26 1017.18 1017.11 1017.05 1016.99 1016.91 1016.80 1016.63 1016.40 1016.13 1015.82 1015.50 1015.20 1014.92 1014.68 1014.46
1010.71 1010.56 1010.58 1010.80 1011.22 1011.82 1012.55 1013.33 1014.10 1014.78 1015.31 1015.67 1015.88 1015.97 1015.99 1016.02 1016.08 1016.21 1016.43 1016.71 1017.01 1017.29 1017.53 1017.68 1017.75 1017.75 1017.69 1017.62 1017.54 1017.48 1017.43 1017.38 1017.30 1017.17 1016.97 1016.69 1016.35 1015.96 1015.56 1015.18 1014.82 1014.52 1014.26
1011.03 1010.90 1010.93 1011.15 1011.57 1012.16 1012.89 1013.68 1014.46 1015.16 1015.72 1016.12 1016.36 1016.47 1016.51 1016.53 1016.58 1016.70 1016.89 1017.13 1017.40 1017.66 1017.87 1018.01 1018.07 1018.06 1018.02 1017.96 1017.90 1017.86 1017.82 1017.78 1017.70 1017.54 1017.30 1016.96 1016.54 1016.06 1015.56 1015.07 1014.62 1014.24 1013.92
1011.55 1011.48 1011.54 1011.77 1012.17 1012.73 1013.42 1014.18 1014.93 1015.62 1016.18 1016.59 1016.84 1016.97 1017.02 1017.04 1017.08 1017.17 1017.33 1017.54 1017.77 1017.98 1018.16 1018.27 1018.33 1018.32 1018.29 1018.24 1018.21 1018.19 1018.18 1018.14 1018.05 1017.87 1017.58 1017.18 1016.67 1016.10 1015.48 1014.88 1014.33 1013.86 1013.47
1012.30 1012.32 1012.42 1012.64 1013.01 1013.51 1014.12 1014.80 1015.49 1016.12 1016.65 1017.04 1017.29 1017.43 1017.48 1017.50 1017.54 1017.60 1017.72 1017.89 1018.07 1018.24 1018.38 1018.47 1018.51 1018.50 1018.48 1018.45 1018.44 1018.43 1018.43 1018.40 1018.30 1018.09 1017.77 1017.30 1016.72 1016.05 1015.34 1014.63 1013.97 1013.40 1012.93
Thickness
5796 5797 5794 5789 5786 5783 5781 5779 5777 5775 5773 5771 5768 5766 5763 5761 5759 5756 5754 5752 5750 5748 5746 5745 5744 5742 5741 5740 5739 5738 5737 5737 5736 5735 5734 5733 5733 5733 5733 5732 5732 5732 5731
5801 5797 5792 5788 5784 5782 5779 5777 5774 5772 5770 5768 5765 5763 5760 5758 5755 5753 5750 5748 5747 5745 5743 5742 5740 5739 5738 5737 5736 5735 5735 5734 5733 5732 5731 5730 5730 5730 5730 5730 5729 5729 5728
5799 5796 5790 5786 5782 5779 5777 5775 5772 5770 5768 5765 5762 5759 5757 5754 5752 5750 5747 5745 5743 5742 5740 5738 5737 5736 5735 5734 5733 5732 5731 5731 5730 5729 5728 5727 5726 5727 5727 5726 5726 5726 5726
5798 5794 5789 5784 5780 5777 5774 5772 5769 5767 5765 5762 5759 5756 5753 5751 5748 5746 5744 5742 5740 5738 5737 5735 5733 5732 5731 5731 5730 5729 5728 5728 5727 5726 5725 5724 5723 5723 5723 5723 5723 5723 5722
5794 5791 5788 5783 5779 5775 5771 5768 5766 5764 5762 5759 5756 5753 5750 5747 5745 5743 5740 5738 5736 5735 5733 5731 5730 5729 5728 5727 5726 5725 5725 5724 5723 5722 5721 5721 5721 5720 5720 5720 5720 5720 5719
5791 5788 5785 5781 5777 5773 5769 5765 5763 5760 5758 5755 5752 5750 5747 5744 5741 5739 5737 5734 5732 5731 5729 5728 5726 5725 5724 5723 5722 5721 5721 5720 5720 5719 5718 5718 5717 5717 5717 5717 5717 5717 5716
5788 5786 5782 5779 5774 5770 5767 5763 5760 5756 5754 5751 5748 5746 5743 5740 5738 5736 5733 5731 5729 5727 5725 5724 5722 5721 5720 5719 5718 5717 5717 5716 5716 5716 5715 5715 5715 5714 5714 5714 5714 5713 5713
5784 5782 5779 5776 5772 5767 5763 5760 5757 5753 5750 5747 5745 5742 5739 5737 5734 5732 5730 5728 5725 5724 5722 5720 5719 5718 5716 5715 5714 5714 5713 5713 5713 5712 5712 5712 5712 5711 5711 5711 5710 5710 5710
5780 5777 5775 5772 5769 5765 5761 5757 5753 5750 5747 5744 5742 5738 5736 5733 5730 5728 5726 5724 5722 5720 5719 5717 5716 5714 5713 5711 5710 5710 5709 5709 5709 5708 5708 5708 5708 5708 5708 5708 5707 5707 5707
5775 5773 5771 5769 5765 5761 5757 5754 5750 5747 5744 5741 5738 5735 5732 5729 5727 5724 5722 5721 5719 5717 5716 5714 5713 5711 5710 5708 5707 5706 5705 5705 5705 5705 5704 5704 5704 5704 5704 5704 5704 5704 5703
5769 5768 5766 5763 5761 5758 5754 5751 5747 5743 5740 5737 5734 5732 5729 5726 5723 5720 5719 5717 5715 5714 5713 5711 5709 5708 5707 5706 5704 5703 5702 5701 5701 5701 5701 5701 5700 5700 5700 5701 5700 5700 5700
5764 5763 5761 5759 5756 5754 5751 5747 5744 5741 5737 5734 5731 5728 5725 5723 5719 5717 5716 5714 5713 5711 5710 5708 5706 5705 5703 5702 5701 5699 5698 5697 5696 5697 5697 5697 5696 5696 5697 5697 5697 5696 5696
5763 5760 5758 5755 5753 5750 5747 5744 5740 5737 5734 5731 5728 5725 5722 5719 5716 5714 5712 5711 5709 5708 5707 5705 5703 5701 5699 5698 5697 5695 5694 5693 5693 5693 5693 5693 5693 5692 5693 5693 5693 5693 5693
5759 5756 5754 5751 5748 5745 5743 5740 5736 5733 5730 5727 5724 5721 5718 5716 5713 5711 5709 5707 5706 5704 5703 5700 5699 5698 5696 5694 5693 5692 5690 5690 5689 5689 5689 5689 5689 5689 5689 5689 5689 5689 5689
5754 5753 5750 5747 5744 5742 5738 5735 5733 5730 5727 5724 5721 5718 5715 5713 5710 5707 5706 5704 5702 5700 5698 5697 5695 5694 5692 5691 5689 5688 5687 5686 5686 5686 5685 5685 5685 5685 5685 5685 5685 5685 5685
5750 5748 5746 5743 5741 5738 5734 5731 5729 5726 5723 5720 5717 5715 5712 5709 5707 5704 5702 5700 5699 5697 5695 5693 5691 5690 5688 5687 5685 5684 5684 5683 5683 5682 5682 5681 5681 5681 5680 5681 5681 5681 5681
5747 5744 5741 5739 5737 5734 5730 5727 5725 5722 5720 5717 5714 5712 5709 5706 5704 5701 5699 5697 5695 5693 5691 5689 5687 5685 5684 5683 5681 5680 5680 5679 5679 5678 5678 5677 5676 5676 5676 5676 5676 5677 5676
5744 5741 5738 5737 5733 5730 5727 5723 5720 5718 5716 5713 5711 5708 5705 5703 5701 5698 5696 5695 5692 5690 5688 5685 5683 5681 5679 5678 5676 5676 5675 5675 5675 5674 5673 5672 5672 5671 5671 5671 5671 5672 5672
5741 5738 5734 5731 5728 5726 5722 5719 5715 5713 5710 5708 5706 5704 5702 5699 5698 5696 5693 5691 5689 5686 5684 5682 5679 5676 5674 5673 5672 5671 5671 5670 5669 5669 5668 5667 5667 5666 5666 5666 5666 5666 5667
5737 5734 5730 5726 5723 5721 5717 5713 5709 5707 5705 5703 5702 5701 5699 5696 5694 5692 5690 5688 5685 5682 5679 5677 5674 5672 5670 5667 5667 5666 5665 5664 5664 5663 5662 5662 5661 5661 5661 5661 5661 5661 5662
5731 5728 5725 5721 5717 5715 5711 5707 5703 5701 5699 5698 5698 5697 5695 5693 5690 5688 5686 5683 5681 5678 5675 5673 5670 5667 5664 5662 5659 5658 5658 5658 5658 5658 5657 5656 5656 5656 5655 5656 5656 5656 5656
5726 5724 5720 5717 5714 5711 5709 5706 5702 5698 5696 5695 5693 5693 5692 5689 5687 5685 5682 5680 5676 5673 5670 5668 5665 5662 5659 5657 5653 5650 5648 5649 5651 5652 5651 5651 5651 5650 5650 5651 5651 5651 5651
5721 5720 5717 5713 5710 5708 5705 5702 5698 5695 5692 5689 5688 5688 5687 5685 5683 5681 5678 5676 5673 5670 5666 5664 5661 5658 5654 5651 5649 5646 5642 5641 5642 5644 5645 5645 5645 5645 5645 5646 5646 5646 5646
5717 5716 5714 5711 5707 5704 5701 5699 5695 5691 5687 5685 5683 5683 5682 5681 5679 5676 5675 5672 5668 5666 5663 5661 5658 5655 5651 5647 5644 5642 5640 5639 5635 5636 5638 5639 5639 5639 5640 5641 5641 5641 5641
5712 5711 5709 5706 5702 5699 5696 5694 5691 5687 5685 5682 5681 5679 5678 5676 5675 5672 5669 5667 5665 5662 5660 5657 5654 5651 5648 5644 5641 5638 5635 5632 5631 5629 5630 5633 5633 5634 5635 5635 5636 5636 5636
5706 5704 5702 5699 5697 5694 5692 5690 5687 5684 5681 5678 5677 5675 5673 5671 5669 5667 5666 5664 5662 5659 5656 5653 5650 5647 5644 5641 5638 5635 5633 5630 5628 5625 5625 5626 5627 5629 5630 5631 5631 5631 5631